Regional Weather Roundup
Issued by NWS

Home | Current Version | Previous Version | Graphics & Text | Print | Product List | Glossary On
Versions: 1 2 3 4 5 6 7 8 9 10 11 12 13 14 15 16 17 18 19 20 21 22 23 24 25 26 27
000
ASUS45 KBOU 220510
RWRCO

WEATHER ROUNDUP FOR COLORADO
NATIONAL WEATHER SERVICE DENVER/BOULDER CO
1000 PM MST TUE NOV 21 2017

NOTE: "FAIR" INDICATES FEW OR NO CLOUDS BELOW 12000 FEET WITH NO
SIGNIFICANT WEATHER AND/OR OBSTRUCTIONS TO VISIBILITY.

COZ001>005-013-030-031-220600-
...NORTHWEST COLORADO...

CITY           SKY/WX    TMP DP  RH WIND       PRES   REMARKS
CRAIG          FAIR      34  30  85 CALM      30.45R
HAYDEN         FAIR      37  33  85 E3        30.46R
MEEKER         FAIR      37  32  82 SE3       30.44R
RABBIT EARS PA FOG      N/A N/A N/A W9G20     30.50R VSB 1/2
STEAMBOAT SPGS CLOUDY    35  34  96 CALM      30.45R
WALDEN         FAIR      34  27  75 S7        30.44R WCI  28
$$

COZ006>008-011-220600-
...WEST CENTRAL VALLEYS...

CITY           SKY/WX    TMP DP  RH WIND       PRES   REMARKS
GRAND JUNCTION FAIR      44  25  47 SE3       30.41R
MONTROSE       FAIR      34  28  79 S5        30.45R WCI  30
EAGLE          FAIR      33  28  81 CALM      30.48R
RIFLE          FAIR      33  30  88 CALM      30.45R
DELTA          FAIR      38  24  56 CALM      30.44R
NUCLA          FAIR      39  27  60 CALM      30.46R
$$

COZ017>023-064>068-220600-
...SOUTHWEST COLORADO...

CITY           SKY/WX    TMP DP  RH WIND       PRES   REMARKS
DURANGO        FAIR      32  19  58 E3        30.38R
CORTEZ         FAIR      34  25  69 E8        30.41R WCI  27
PAGOSA SPRINGS FAIR      30  20  65 CALM      30.44R
TELLURIDE      FAIR      36  25  64 CALM      30.53R
WOLF CREEK PAS FAIR      30  12  47 W9        30.61R WCI  22
$$

COZ009-010-012-014-032>034-037-058>063-220600-
...CENTRAL COLORADO...

CITY           SKY/WX    TMP DP  RH WIND       PRES   REMARKS
ASPEN          FAIR      33  28  81 S6        30.47R WCI  28
BUENA VISTA    FAIR      38  24  55 NW10      30.40S
COPPER MTN     CLOUDY    28  23  80 MISG      30.55R
BERTHOUD PASS  CLOUDY    21  10  63 N20G38    30.49R WCI   6
COTTONWOOD PAS FAIR      41  25  52 W12G23    30.44S
GUNNISON       FAIR      28  24  85 E3        30.46R
KREMMLING      CLOUDY    39  34  81 CALM      30.46S
LEADVILLE      FAIR      23  19  85 N10       30.49R WCI  12
MONARCH PASS   FAIR      25  21  86 W25       30.62R WCI   9
SALIDA         FAIR      33  29  86 CALM      30.47S
SUNLIGHT       FAIR      28  27  93 MISG      30.58R
WILKERSON PASS FAIR      30  16  55 NW18G33   30.44S WCI  18
$$

COZ069>075-220600-
...SAN LUIS VALLEY/SANGRE DE CRISTO MOUNTAINS...

CITY           SKY/WX    TMP DP  RH WIND       PRES   REMARKS
ALAMOSA        FAIR      25  17  72 S6        30.41R WCI  18
DEL NORTE      FAIR      30  17  57 W5        30.42S WCI  25
LA VETA PASS   FAIR      32  23  69 S26G35      N/A  WCI  18
SAGUACHE       FAIR      37  27  65 NW13      30.41S
$$

COZ035-036-038>040-220600-
...NORTHERN COLORADO FRONT RANGE...

CITY           SKY/WX    TMP DP  RH WIND       PRES   REMARKS
DENVER INTL AP FAIR      39  31  72 W10       30.26S
DMNS CITY PARK   N/A     35  33  92 E7        30.26F WCI  30
AURORA         PTCLDY    39  32  75 S12       30.26S
FRONT RANGE AP FAIR      37  33  84 W8        30.27R
ERIE MUNI ARPT FAIR      30  28  93 CALM      30.32F
BOULDER MUN AP FAIR      36  34  93 SW5       30.26F
CENTENNIAL     FAIR      38  32  79 S12       30.26S
BROOMFIELD     FAIR      36  32  87 NW8       30.26F
FORT COLLINS   FAIR      33  30  88 N3        30.28S
LONGMONT       FAIR      34  32  92 W6        30.29S WCI  29
$$

COZ041-046-047-076>085-087-088-220600-
...PIKES PEAK/PALMER DIVIDE AND SOUTHERN FOOTHILLS...

CITY           SKY/WX    TMP DP  RH WIND       PRES   REMARKS
COLO. SPRINGS  FAIR      36  29  75 SE5       30.35F
A. F. ACADEMY  FAIR      29  26  88 N6        30.34F WCI  23
SCHRIEVER AFB  FAIR      31  26  79 CALM      30.35F
CHEYENNE MTN   FAIR      35  31  85 CALM      30.29S
ELLICOTT         N/A      1  32 100 S7        30.33F WCI -12
FALCON         FAIR      30  27  89 SW7       30.35S WCI  23
FORT CARSON    FAIR      31  27  86 SE6       30.32F WCI  25
LIMON          FAIR      29  25  85 SE7       30.33S WCI  22
MONUMENT HILL  FAIR      32  28  86 S15       30.33R WCI  22
CANON CITY     FAIR      36  32  87 NW3       30.33F
WALSENBURG     FAIR      28  27  93 CALM      30.34F
TRINIDAD       FAIR      32  29  88 W8        30.36S WCI  25
$$

COZ042>045-048>051-090-091-220600-
...NORTHEAST COLORADO...

CITY           SKY/WX    TMP DP  RH WIND       PRES   REMARKS
GREELEY ARPT   NOT AVBL
AKRON          FAIR      35  25  66 S10       30.28S WCI  27
BURLINGTON     FAIR      29  23  78 S12       30.32F WCI  19
WRAY           NOT AVBL
YUMA           FAIR      27  23  86 SW8       30.29S WCI  18
STERLING       FAIR      28  25  86 S6        30.27S WCI  22
HOLYOKE        FAIR      27  21  80 S6        30.30F WCI  20
FORT MORGAN    NOT AVBL
$$

COZ086-089-092>099-220600-
...SOUTHEAST COLORADO...

CITY           SKY/WX    TMP DP  RH WIND       PRES   REMARKS
PUEBLO         FAIR      35  27  72 E6        30.33F WCI  30
LA JUNTA       FAIR      36  26  67 SE5       30.35S
LAMAR          FAIR      29  21  72 CALM      30.36R
SPRINGFIELD      N/A     27  23  85 SW7       30.39R WCI  19
$$




USA.gov is the U.S. government's official web portal to all federal, state and local government web resources and services.